| time (UTC) | temp F | wind direction | speed MPH | gust MPH | rain 1hr in | rain 24hr in | rain mn in | humidity % | barometer mb |
| 20260503201315 | 66 | 321 | 7.0 | 14.0 | 0.00 | 0.01 | 0.01 | 27 | 1003.2 |
| 20260503200815 | 67 | 311 | 6.0 | 14.0 | 0.00 | 0.01 | 0.01 | 24 | 1003.1 |
| 20260503200315 | 66 | 344 | 7.0 | 17.0 | 0.00 | 0.01 | 0.01 | 27 | 1003.3 |
| 20260503195815 | 66 | 349 | 7.0 | 16.0 | 0.00 | 0.01 | 0.01 | 27 | 1003.2 |
| 20260503195315 | 66 | 338 | 5.0 | 11.0 | 0.00 | 0.01 | 0.01 | 29 | 1003.1 |
| 20260503194815 | 66 | 275 | 5.0 | 12.0 | 0.00 | 0.01 | 0.01 | 29 | 1003.2 |
| 20260503194315 | 66 | 355 | 5.0 | 13.0 | 0.00 | 0.01 | 0.01 | 30 | 1003.1 |
| 20260503193815 | 66 | 213 | 5.0 | 13.0 | 0.00 | 0.01 | 0.01 | 28 | 1003.2 |
| 20260503193315 | 66 | 169 | 6.0 | 19.0 | 0.00 | 0.01 | 0.01 | 28 | 1003.1 |
| 20260503192815 | 66 | 272 | 6.0 | 15.0 | 0.00 | 0.01 | 0.01 | 29 | 1003.3 |
| 20260503192315 | 66 | 217 | 6.0 | 16.0 | 0.00 | 0.01 | 0.01 | 30 | 1003.3 |
| 20260503191815 | 66 | 198 | 6.0 | 12.0 | 0.00 | 0.01 | 0.01 | 32 | 1003.4 |
| 20260503191315 | 66 | 310 | 6.0 | 15.0 | 0.00 | 0.01 | 0.01 | 31 | 1003.3 |
| 20260503190815 | 65 | 230 | 6.0 | 13.0 | 0.00 | 0.01 | 0.01 | 29 | 1003.4 |
| 20260503190315 | 66 | 5 | 5.0 | 13.0 | 0.00 | 0.01 | 0.01 | 29 | 1003.5 |
| 20260503185815 | 66 | 229 | 4.0 | 10.0 | 0.00 | 0.01 | 0.01 | 32 | 1003.6 |
| 20260503185315 | 65 | 96 | 4.0 | 10.0 | 0.00 | 0.01 | 0.01 | 32 | 1003.5 |
| 20260503184815 | 65 | 348 | 5.0 | 10.0 | 0.00 | 0.01 | 0.01 | 33 | 1003.7 |
| 20260503184315 | 65 | 289 | 6.0 | 15.0 | 0.00 | 0.01 | 0.01 | 32 | 1003.7 |
| 20260503183815 | 65 | 291 | 6.0 | 15.0 | 0.00 | 0.01 | 0.01 | 32 | 1003.9 |
| 20260503183315 | 65 | 293 | 5.0 | 15.0 | 0.00 | 0.01 | 0.01 | 33 | 1003.7 |
| 20260503182815 | 65 | 318 | 6.0 | 14.0 | 0.00 | 0.01 | 0.01 | 34 | 1003.8 |
| 20260503182315 | 65 | 225 | 6.0 | 13.0 | 0.00 | 0.01 | 0.01 | 35 | 1003.9 |
| 20260503181815 | 64 | 249 | 7.0 | 10.0 | 0.00 | 0.01 | 0.01 | 36 | 1003.9 |
| 20260503181315 | 64 | 5 | 8.0 | 14.0 | 0.00 | 0.01 | 0.01 | 36 | 1003.9 |
| 20260503180815 | 64 | 276 | 8.0 | 17.0 | 0.00 | 0.01 | 0.01 | 35 | 1004.0 |
| 20260503180315 | 65 | 335 | 8.0 | 14.0 | 0.00 | 0.01 | 0.01 | 35 | 1003.9 |
| 20260503175815 | 65 | 348 | 6.0 | 16.0 | 0.00 | 0.01 | 0.01 | 36 | 1004.0 |
| 20260503175315 | 65 | 298 | 5.0 | 17.0 | 0.00 | 0.01 | 0.01 | 34 | 1004.0 |
| 20260503174815 | 65 | 302 | 5.0 | 10.0 | 0.00 | 0.01 | 0.01 | 35 | 1004.2 |
| 20260503174315 | 65 | 315 | 6.0 | 13.0 | 0.00 | 0.01 | 0.01 | 36 | 1004.0 |
| 20260503173815 | 64 | 22 | 5.0 | 18.0 | 0.00 | 0.01 | 0.01 | 38 | 1004.1 |
| 20260503173315 | 64 | 204 | 5.0 | 15.0 | 0.00 | 0.01 | 0.01 | 38 | 1004.1 |
| 20260503172815 | 64 | 22 | 6.0 | 12.0 | 0.00 | 0.01 | 0.01 | 39 | 1004.2 |
| 20260503172315 | 64 | 304 | 6.0 | 16.0 | 0.00 | 0.01 | 0.01 | 40 | 1004.2 |
| 20260503171815 | 63 | 306 | 7.0 | 15.0 | 0.00 | 0.01 | 0.01 | 43 | 1004.2 |
| 20260503171315 | 63 | 350 | 6.0 | 18.0 | 0.00 | 0.01 | 0.01 | 43 | 1004.3 |
| 20260503170815 | 63 | 5 | 5.0 | 10.0 | 0.00 | 0.01 | 0.01 | 41 | 1004.4 |
| 20260503170315 | 63 | 316 | 6.0 | 14.0 | 0.00 | 0.01 | 0.01 | 42 | 1004.5 |
| 20260503150815 | 59 | 139 | 4.0 | 12.0 | 0.00 | 0.01 | 0.01 | 50 | 1004.8 |
| 20260503150316 | 59 | 283 | 3.0 | 8.0 | 0.00 | 0.01 | 0.01 | 54 | 1004.8 |
| 20260503131316 | 56 | 207 | 2.0 | 8.0 | 0.00 | 0.01 | 0.01 | 60 | 1005.1 |
| 20260503130816 | 56 | 255 | 2.0 | 8.0 | 0.00 | 0.01 | 0.01 | 60 | 1005.1 |
| 20260503130316 | 55 | 190 | 2.0 | 14.0 | 0.00 | 0.01 | 0.01 | 62 | 1005.1 |
| 20260503110816 | 42 | 173 | 0.0 | 0.0 | 0.00 | 0.01 | 0.01 | 89 | 1005.1 |
| 20260503110316 | 42 | 202 | 0.0 | 0.0 | 0.00 | 0.01 | 0.01 | 90 | 1005.2 |
| 20260503090316 | 46 | 229 | 0.0 | 0.0 | 0.00 | 0.01 | 0.01 | 86 | 1006.3 |
| 20260503081316 | 47 | 229 | 0.0 | 0.0 | 0.00 | 0.01 | 0.01 | 85 | 1006.7 |
| 20260503080817 | 47 | 229 | 0.0 | 0.0 | 0.00 | 0.01 | 0.01 | 86 | 1006.8 |
| 20260503080316 | 47 | 229 | 0.0 | 0.0 | 0.00 | 0.01 | 0.01 | 85 | 1006.9 |
| 20260503072817 | 48 | 229 | 0.0 | 0.0 | 0.01 | 0.01 | 0.01 | 84 | 1007.7 |
| 20260503072317 | 48 | 229 | 0.0 | 0.0 | 0.01 | 0.01 | 0.01 | 84 | 1007.8 |
| 20260503071817 | 48 | 229 | 0.0 | 0.0 | 0.01 | 0.01 | 0.01 | 84 | 1007.8 |
| 20260503071317 | 49 | 229 | 1.0 | 0.0 | 0.01 | 0.01 | 0.01 | 84 | 1008.0 |
| 20260503070817 | 49 | 229 | 1.0 | 6.0 | 0.01 | 0.01 | 0.01 | 83 | 1008.2 |
| 20260503070317 | 49 | 275 | 0.0 | 2.0 | 0.01 | 0.01 | 0.01 | 84 | 1008.2 |
| 20260503060317 | 53 | 292 | 0.0 | 3.0 | 0.00 | 0.00 | 0.00 | 63 | 1008.8 |
| 20260503054817 | 54 | 99 | 0.0 | 1.0 | 0.00 | 0.00 | 0.00 | 56 | 1009.1 |
| 20260503054317 | 54 | 61 | 0.0 | 2.0 | 0.00 | 0.00 | 0.00 | 56 | 1009.1 |
| 20260503053817 | 54 | 290 | 1.0 | 1.0 | 0.00 | 0.00 | 0.00 | 55 | 1009.1 |
| 20260503053317 | 54 | 300 | 1.0 | 8.0 | 0.00 | 0.00 | 0.00 | 55 | 1009.1 |
| 20260503052817 | 54 | 272 | 1.0 | 3.0 | 0.00 | 0.00 | 0.00 | 55 | 1009.1 |
| 20260503052317 | 54 | 298 | 1.0 | 4.0 | 0.00 | 0.00 | 0.00 | 54 | 1009.1 |
| 20260503051817 | 54 | 229 | 1.0 | 3.0 | 0.00 | 0.00 | 0.00 | 54 | 1009.2 |
| 20260503051317 | 54 | 229 | 2.0 | 7.0 | 0.00 | 0.00 | 0.00 | 55 | 1009.2 |
| 20260503050817 | 54 | 248 | 1.0 | 5.0 | 0.00 | 0.00 | 0.00 | 56 | 1009.2 |
| 20260503050317 | 54 | 5 | 1.0 | 5.0 | 0.00 | 0.00 | 0.00 | 57 | 1009.2 |
| 20260503045817 | 53 | 192 | 1.0 | 5.0 | 0.00 | 0.00 | 0.00 | 57 | 1009.2 |
| 20260503045317 | 53 | 281 | 0.0 | 2.0 | 0.00 | 0.00 | 0.00 | 59 | 1009.2 |
| 20260503044817 | 53 | 158 | 0.0 | 0.0 | 0.00 | 0.00 | 0.00 | 58 | 1009.2 |
| 20260503044317 | 53 | 158 | 0.0 | 0.0 | 0.00 | 0.00 | 0.00 | 58 | 1009.2 |
| 20260503043817 | 54 | 261 | 0.0 | 3.0 | 0.00 | 0.00 | 0.00 | 56 | 1009.3 |
| 20260503043317 | 54 | 254 | 0.0 | 0.0 | 0.00 | 0.00 | 0.00 | 57 | 1009.3 |
| 20260503042817 | 54 | 235 | 0.0 | 0.0 | 0.00 | 0.00 | 0.00 | 56 | 1009.3 |
| 20260503042317 | 55 | 235 | 1.0 | 1.0 | 0.00 | 0.00 | 0.00 | 55 | 1009.4 |
| 20260503041817 | 55 | 266 | 1.0 | 3.0 | 0.00 | 0.00 | 0.00 | 55 | 1009.5 |
| 20260503041317 | 55 | 219 | 2.0 | 3.0 | 0.00 | 0.00 | 0.00 | 55 | 1009.6 |
| 20260503040817 | 55 | 350 | 2.0 | 6.0 | 0.00 | 0.00 | 0.00 | 54 | 1009.6 |
| 20260503040317 | 55 | 287 | 2.0 | 8.0 | 0.00 | 0.00 | 0.00 | 54 | 1009.7 |
| 20260503035817 | 55 | 40 | 2.0 | 4.0 | 0.00 | 0.00 | 0.00 | 55 | 1009.8 |
| 20260503035317 | 55 | 231 | 1.0 | 11.0 | 0.00 | 0.00 | 0.00 | 54 | 1009.9 |
| 20260503034817 | 55 | 301 | 2.0 | 4.0 | 0.00 | 0.00 | 0.00 | 55 | 1009.9 |
| 20260503034317 | 55 | 312 | 3.0 | 9.0 | 0.00 | 0.00 | 0.00 | 55 | 1010.0 |
| 20260503033817 | 54 | 152 | 2.0 | 9.0 | 0.00 | 0.00 | 0.00 | 56 | 1010.0 |
| 20260503033317 | 53 | 284 | 2.0 | 7.0 | 0.00 | 0.00 | 0.00 | 57 | 1009.9 |
| 20260503032817 | 53 | 186 | 2.0 | 5.0 | 0.00 | 0.00 | 0.00 | 56 | 1010.0 |
| 20260503032317 | 53 | 112 | 1.0 | 5.0 | 0.00 | 0.00 | 0.00 | 56 | 1010.1 |
| 20260503031817 | 53 | 253 | 1.0 | 2.0 | 0.00 | 0.00 | 0.00 | 56 | 1010.2 |
| 20260503031317 | 52 | 323 | 1.0 | 4.0 | 0.00 | 0.00 | 0.00 | 57 | 1010.1 |
| 20260503030817 | 52 | 93 | 1.0 | 3.0 | 0.00 | 0.00 | 0.00 | 56 | 1010.3 |
| 20260503030317 | 52 | 302 | 1.0 | 2.0 | 0.00 | 0.00 | 0.00 | 58 | 1010.3 |
| 20260503025817 | 53 | 183 | 1.0 | 4.0 | 0.00 | 0.00 | 0.00 | 59 | 1010.5 |
| 20260503025317 | 53 | 305 | 1.0 | 2.0 | 0.00 | 0.00 | 0.00 | 57 | 1010.5 |
| 20260503024817 | 53 | 322 | 2.0 | 6.0 | 0.00 | 0.00 | 0.00 | 57 | 1010.5 |
| 20260503024317 | 52 | 291 | 2.0 | 3.0 | 0.00 | 0.00 | 0.00 | 55 | 1010.5 |
| 20260503023817 | 52 | 123 | 2.0 | 4.0 | 0.00 | 0.00 | 0.00 | 54 | 1010.4 |
| 20260503023317 | 52 | 145 | 1.0 | 4.0 | 0.00 | 0.00 | 0.00 | 54 | 1010.6 |
| 20260503022817 | 52 | 125 | 2.0 | 4.0 | 0.00 | 0.00 | 0.00 | 53 | 1010.5 |
| 20260503022317 | 51 | 191 | 1.0 | 8.0 | 0.00 | 0.00 | 0.00 | 54 | 1010.5 |
| 20260503021817 | 51 | 194 | 0.0 | 0.0 | 0.00 | 0.00 | 0.00 | 52 | 1010.5 |
| 20260503021317 | 51 | 132 | 0.0 | 0.0 | 0.00 | 0.00 | 0.00 | 53 | 1010.6 |
| 20260503020817 | 51 | 59 | 0.0 | 0.0 | 0.00 | 0.00 | 0.00 | 52 | 1010.5 |
| 20260503020317 | 51 | 5 | 0.0 | 0.0 | 0.00 | 0.00 | 0.00 | 53 | 1010.6 |
| 20260503015817 | 51 | 31 | 0.0 | 1.0 | 0.00 | 0.00 | 0.00 | 52 | 1010.6 |
| 20260503015317 | 52 | 88 | 0.0 | 0.0 | 0.00 | 0.00 | 0.00 | 52 | 1010.5 |
| 20260503014817 | 52 | 88 | 0.0 | 2.0 | 0.00 | 0.00 | 0.00 | 51 | 1010.6 |
| 20260503014317 | 52 | 134 | 0.0 | 2.0 | 0.00 | 0.00 | 0.00 | 50 | 1010.6 |
| 20260503013817 | 53 | 138 | 0.0 | 1.0 | 0.00 | 0.00 | 0.00 | 50 | 1010.6 |
| 20260503013317 | 53 | 145 | 0.0 | 2.0 | 0.00 | 0.00 | 0.00 | 49 | 1010.6 |
| 20260503012817 | 53 | 185 | 1.0 | 2.0 | 0.00 | 0.00 | 0.00 | 49 | 1010.6 |
| 20260503012317 | 54 | 138 | 1.0 | 3.0 | 0.00 | 0.00 | 0.00 | 47 | 1010.6 |
| 20260503011817 | 54 | 213 | 1.0 | 3.0 | 0.00 | 0.00 | 0.00 | 47 | 1010.6 |
| 20260503011317 | 54 | 136 | 1.0 | 3.0 | 0.00 | 0.00 | 0.00 | 47 | 1010.6 |
| 20260503010818 | 55 | 170 | 1.0 | 3.0 | 0.00 | 0.00 | 0.00 | 46 | 1010.6 |
| 20260503010317 | 55 | 170 | 1.0 | 4.0 | 0.00 | 0.00 | 0.00 | 44 | 1010.7 |
| 20260503005817 | 55 | 169 | 0.0 | 3.0 | 0.00 | 0.00 | 0.00 | 44 | 1010.7 |
| 20260503005317 | 55 | 142 | 0.0 | 2.0 | 0.00 | 0.00 | 0.00 | 44 | 1010.8 |
| 20260503004817 | 55 | 272 | 0.0 | 0.0 | 0.00 | 0.00 | 0.00 | 44 | 1010.8 |
| 20260503004317 | 56 | 272 | 0.0 | 0.0 | 0.00 | 0.00 | 0.00 | 43 | 1010.9 |
| 20260503003818 | 56 | 272 | 0.0 | 2.0 | 0.00 | 0.00 | 0.00 | 42 | 1011.0 |
| 20260503003318 | 56 | 186 | 0.0 | 3.0 | 0.00 | 0.00 | 0.00 | 44 | 1011.0 |
| 20260503002818 | 56 | 155 | 0.0 | 3.0 | 0.00 | 0.00 | 0.00 | 43 | 1011.0 |
| 20260503002318 | 56 | 250 | 1.0 | 1.0 | 0.00 | 0.00 | 0.00 | 42 | 1011.1 |
| 20260503001818 | 57 | 250 | 1.0 | 2.0 | 0.00 | 0.00 | 0.00 | 43 | 1011.1 |
| 20260503001318 | 57 | 333 | 1.0 | 2.0 | 0.00 | 0.00 | 0.00 | 42 | 1011.1 |
| 20260503000818 | 57 | 130 | 1.0 | 2.0 | 0.00 | 0.00 | 0.00 | 42 | 1011.2 |
| 20260503000318 | 57 | 82 | 1.0 | 3.0 | 0.00 | 0.00 | 0.00 | 40 | 1011.3 |
| 20260502235818 | 57 | 96 | 1.0 | 4.0 | 0.00 | 0.00 | 0.00 | 41 | 1011.4 |
| 20260502235318 | 57 | 310 | 1.0 | 2.0 | 0.00 | 0.00 | 0.00 | 40 | 1011.4 |
| 20260502234818 | 57 | 269 | 1.0 | 3.0 | 0.00 | 0.00 | 0.00 | 39 | 1011.5 |
| 20260502234318 | 58 | 205 | 1.0 | 6.0 | 0.00 | 0.00 | 0.00 | 42 | 1011.6 |
| 20260502233818 | 58 | 61 | 1.0 | 3.0 | 0.00 | 0.00 | 0.00 | 38 | 1011.6 |
| 20260502233318 | 58 | 240 | 1.0 | 2.0 | 0.00 | 0.00 | 0.00 | 40 | 1011.6 |
| 20260502232818 | 58 | 69 | 1.0 | 4.0 | 0.00 | 0.00 | 0.00 | 39 | 1011.7 |
| 20260502232318 | 58 | 179 | 1.0 | 3.0 | 0.00 | 0.00 | 0.00 | 38 | 1011.8 |
| 20260502231818 | 58 | 240 | 2.0 | 4.0 | 0.00 | 0.00 | 0.00 | 39 | 1011.8 |
| 20260502231318 | 58 | 18 | 2.0 | 8.0 | 0.00 | 0.00 | 0.00 | 39 | 1011.9 |
| 20260502230818 | 58 | 185 | 1.0 | 3.0 | 0.00 | 0.00 | 0.00 | 38 | 1012.2 |
| 20260502230318 | 58 | 250 | 1.0 | 5.0 | 0.00 | 0.00 | 0.00 | 40 | 1012.0 |
| 20260502225818 | 58 | 46 | 1.0 | 3.0 | 0.00 | 0.00 | 0.00 | 39 | 1012.0 |
| 20260502225318 | 59 | 220 | 2.0 | 3.0 | 0.00 | 0.00 | 0.00 | 36 | 1011.9 |
| 20260502224818 | 59 | 219 | 2.0 | 5.0 | 0.00 | 0.00 | 0.00 | 36 | 1012.1 |
| 20260502224318 | 59 | 208 | 2.0 | 5.0 | 0.00 | 0.00 | 0.00 | 35 | 1012.0 |
| 20260502223818 | 60 | 13 | 2.0 | 5.0 | 0.00 | 0.00 | 0.00 | 36 | 1012.2 |
| 20260502223318 | 60 | 312 | 3.0 | 9.0 | 0.00 | 0.00 | 0.00 | 36 | 1012.2 |
| 20260502222818 | 60 | 220 | 3.0 | 8.0 | 0.00 | 0.00 | 0.00 | 35 | 1012.2 |
| 20260502222318 | 60 | 321 | 3.0 | 9.0 | 0.00 | 0.00 | 0.00 | 34 | 1012.3 |
| 20260502221818 | 60 | 252 | 3.0 | 8.0 | 0.00 | 0.00 | 0.00 | 34 | 1012.4 |
| 20260502221318 | 60 | 297 | 3.0 | 8.0 | 0.00 | 0.00 | 0.00 | 34 | 1012.4 |
| 20260502220818 | 60 | 67 | 3.0 | 8.0 | 0.00 | 0.00 | 0.00 | 33 | 1012.4 |
| 20260502220318 | 60 | 313 | 3.0 | 9.0 | 0.00 | 0.00 | 0.00 | 37 | 1012.5 |
| 20260502215818 | 59 | 216 | 3.0 | 4.0 | 0.00 | 0.00 | 0.00 | 34 | 1012.5 |
| 20260502215318 | 60 | 216 | 3.0 | 8.0 | 0.00 | 0.00 | 0.00 | 34 | 1012.6 |
| 20260502214818 | 60 | 121 | 4.0 | 8.0 | 0.00 | 0.00 | 0.00 | 33 | 1012.7 |
| 20260502214318 | 59 | 199 | 4.0 | 8.0 | 0.00 | 0.00 | 0.00 | 34 | 1012.7 |
| 20260502213818 | 59 | 132 | 3.0 | 7.0 | 0.00 | 0.00 | 0.00 | 33 | 1012.6 |
| 20260502213318 | 60 | 219 | 4.0 | 9.0 | 0.00 | 0.00 | 0.00 | 31 | 1012.7 |
| 20260502212818 | 60 | 217 | 4.0 | 9.0 | 0.00 | 0.00 | 0.00 | 31 | 1012.8 |
| 20260502212318 | 61 | 249 | 2.0 | 8.0 | 0.00 | 0.00 | 0.00 | 33 | 1012.8 |
| 20260502211818 | 60 | 142 | 2.0 | 5.0 | 0.00 | 0.00 | 0.00 | 34 | 1012.8 |
| 20260502211318 | 59 | 223 | 2.0 | 7.0 | 0.00 | 0.00 | 0.00 | 33 | 1013.1 |
| 20260502210818 | 59 | 249 | 3.0 | 7.0 | 0.00 | 0.00 | 0.00 | 33 | 1013.1 |
| 20260502210318 | 59 | 328 | 4.0 | 9.0 | 0.00 | 0.00 | 0.00 | 33 | 1013.2 |
| 20260502205818 | 59 | 306 | 5.0 | 11.0 | 0.00 | 0.00 | 0.00 | 31 | 1013.3 |
| 20260502205318 | 59 | 304 | 4.0 | 9.0 | 0.00 | 0.00 | 0.00 | 32 | 1013.3 |
| 20260502204818 | 58 | 84 | 3.0 | 9.0 | 0.00 | 0.00 | 0.00 | 35 | 1013.4 |
| 20260502204318 | 57 | 323 | 3.0 | 10.0 | 0.00 | 0.00 | 0.00 | 32 | 1013.5 |
| 20260502203818 | 57 | 165 | 3.0 | 7.0 | 0.00 | 0.00 | 0.00 | 33 | 1013.6 |
| 20260502203318 | 57 | 286 | 4.0 | 10.0 | 0.00 | 0.00 | 0.00 | 31 | 1013.6 |
| 20260502202818 | 58 | 276 | 4.0 | 11.0 | 0.00 | 0.00 | 0.00 | 31 | 1013.7 |
| 20260502202318 | 58 | 275 | 4.0 | 10.0 | 0.00 | 0.00 | 0.00 | 31 | 1013.8 |
| 20260502201818 | 59 | 246 | 4.0 | 17.0 | 0.00 | 0.00 | 0.00 | 29 | 1013.8 |